Terminal Aerodrome Forecast
Issued by NWS Duluth, MN

Home | Current Version | Previous Version | Text Only | Print | Product List | Glossary On
Versions: 1 2 3 4 5 6 7 8 9 10 11 12 13 14 15 16 17 18 19 20 21 22 23
000
FTUS43 KDLH 262334
TAFDLH
TAF
KDLH 262334Z 2700/2724 19005KT P6SM FEW050
      TEMPO 2708/2712 2SM BR FEW005
     FM271600 16015KT P6SM SKC
     FM271800 14008KT P6SM FEW060=

USA.gov is the U.S. government's official web portal to all federal, state and local government web resources and services.